Weather History for Payson, AZ

Change the Weather History Date:

Wednesday, April 2, 2014

  Actual Average Record
Temperature  
Mean Temperature 42 °F -  
Max Temperature 51 °F 63 °F 64 °F (2013)
Min Temperature 33 °F 32 °F 33 °F (2012)
Degree Days  
Heating Degree Days 23    
Moisture  
Dew Point 28 °F    
Average Humidity 58    
Maximum Humidity 93    
Minimum Humidity 22    
Precipitation  
Precipitation 0.00 in - - ()
Sea Level Pressure  
Sea Level Pressure 29.89 in    
Wind  
Wind Speed 9 mph (SW)    
Max Wind Speed 18 mph    
Max Gust Speed 36 mph    
Visibility 10 miles    
Events Snow    
Averages and records for this station are not official NWS values.
T = Trace of Precipitation, MM = Missing Value Source: NWS Daily Summary

Daily Weather History Graph

Daily Weather History Graph

Search for Another Location

Airport:

Trip Planner

Search our weather history database for the weather conditions in past years. The results will help you decide how hot, cold, wet, or windy it might be!

Date:

Astronomy

Apr. 02, 2014 Rise Set
Actual Time 6:11 AM MST 6:47 PM MST
Civil Twilight 5:45 AM MST 7:12 PM MST
Nautical Twilight 5:16 AM MST 7:42 PM MST
Astronomical Twilight 4:45 AM MST 8:12 PM MST
Moon 8:05 AM MST (4/2) 10:05 PM MST (4/2)
Length of Visible Light 13h 26m
Length of Day
12h 35m
Waxing Crescent, 11% of the Moon is Illuminated
Apr 2
Waxing Crescent
Apr 7
First Quarter
Apr 15
Full
Apr 22
Last Quarter
Apr 28
New

Hourly Weather History & Observations

Time (MST) Temp. Windchill Dew Point Humidity Pressure Visibility Wind Dir Wind Speed Gust Speed Precip Events Conditions
12:15 AM 46.4 °F 42.4 °F 28.4 °F 50% 29.90 in 10.0 mi SSW 8.1 mph - N/A   Clear
12:35 AM 46.4 °F 42.4 °F 30.2 °F 53% 29.90 in 10.0 mi SW 8.1 mph 15.0 mph N/A   Clear
12:55 AM 44.6 °F 42.2 °F 30.2 °F 57% 29.90 in 10.0 mi SW 4.6 mph - N/A   Clear
1:15 AM 44.6 °F 43.1 °F 30.2 °F 57% 29.90 in 10.0 mi Variable 3.5 mph - N/A   Clear
1:35 AM 44.6 °F 41.4 °F 30.2 °F 57% 29.89 in 10.0 mi SSW 5.8 mph - N/A   Clear
1:55 AM 44.6 °F 41.4 °F 30.2 °F 57% 29.89 in 10.0 mi Variable 5.8 mph 15.0 mph N/A   Clear
2:15 AM 44.6 °F 40.7 °F 30.2 °F 57% 29.88 in 10.0 mi SSW 6.9 mph - N/A   Clear
2:35 AM 44.6 °F 39.7 °F 30.2 °F 57% 29.88 in 10.0 mi SSW 9.2 mph - N/A   Clear
2:55 AM 44.6 °F 40.7 °F 30.2 °F 57% 29.87 in 10.0 mi SSW 6.9 mph - N/A   Clear
3:15 AM 44.6 °F 40.7 °F 32.0 °F 61% 29.87 in 10.0 mi SSW 6.9 mph - N/A   Scattered Clouds
3:35 AM 44.6 °F 40.2 °F 32.0 °F 61% 29.86 in 10.0 mi SSW 8.1 mph 17.3 mph N/A   Scattered Clouds
3:55 AM 44.6 °F 40.2 °F 32.0 °F 61% 29.86 in 10.0 mi SSW 8.1 mph - N/A   Scattered Clouds
4:15 AM 42.8 °F 38.6 °F 32.0 °F 66% 29.86 in 10.0 mi SSW 6.9 mph - N/A   Mostly Cloudy
5:55 AM 42.8 °F 38.6 °F 32.0 °F 66% 29.87 in 10.0 mi SSW 6.9 mph - N/A   Scattered Clouds
6:15 AM 42.8 °F 39.3 °F 32.0 °F 66% 29.87 in 10.0 mi SW 5.8 mph - N/A   Mostly Cloudy
6:35 AM 42.8 °F 40.1 °F 32.0 °F 66% 29.88 in 10.0 mi Variable 4.6 mph - N/A   Mostly Cloudy
6:55 AM 42.8 °F 39.3 °F 32.0 °F 66% 29.89 in 10.0 mi SW 5.8 mph - N/A   Overcast
7:15 AM 42.8 °F 40.1 °F 32.0 °F 66% 29.89 in 10.0 mi Variable 4.6 mph - N/A   Overcast
7:35 AM 42.8 °F 38.6 °F 30.2 °F 61% 29.89 in 10.0 mi SE 6.9 mph - N/A   Mostly Cloudy
7:55 AM 42.8 °F 39.3 °F 32.0 °F 66% 29.89 in 10.0 mi Variable 5.8 mph - N/A   Mostly Cloudy
8:15 AM 44.6 °F 40.7 °F 32.0 °F 61% 29.89 in 10.0 mi Variable 6.9 mph - N/A   Mostly Cloudy
8:35 AM 44.6 °F 39.7 °F 30.2 °F 57% 29.89 in 10.0 mi South 9.2 mph 18.4 mph N/A   Scattered Clouds
8:55 AM 46.4 °F 40.7 °F 28.4 °F 50% 29.89 in 10.0 mi South 12.7 mph 21.9 mph N/A   Mostly Cloudy
9:15 AM 48.2 °F - 28.4 °F 46% 29.89 in 10.0 mi South 10.4 mph 19.6 mph N/A   Mostly Cloudy
9:35 AM 48.2 °F - 28.4 °F 46% 29.89 in 10.0 mi South 10.4 mph 20.7 mph N/A   Scattered Clouds
9:55 AM 48.2 °F - 26.6 °F 43% 29.89 in 10.0 mi SSW 10.4 mph 23.0 mph N/A   Clear
10:15 AM 50.0 °F - 26.6 °F 40% 29.89 in 10.0 mi SSW 16.1 mph 23.0 mph N/A   Clear
10:55 AM 50.0 °F - 26.6 °F 40% 29.89 in 10.0 mi SSW 12.7 mph 27.6 mph N/A   Clear
11:15 AM 50.0 °F - 23.0 °F 35% 29.89 in 10.0 mi SW 13.8 mph 24.2 mph N/A   Clear
11:35 AM 50.0 °F - 24.8 °F 37% 29.88 in 10.0 mi SSW 17.3 mph 29.9 mph N/A   Clear
11:55 AM 50.0 °F - 24.8 °F 37% 29.88 in 10.0 mi SSW 18.4 mph 32.2 mph N/A   Clear
12:15 PM 50.0 °F - 23.0 °F 35% 29.88 in 10.0 mi SSW 18.4 mph 33.4 mph N/A   Clear
12:35 PM 50.0 °F - 21.2 °F 32% 29.88 in 10.0 mi South 18.4 mph 28.8 mph N/A   Clear
12:55 PM 50.0 °F - 17.6 °F 28% 29.88 in 10.0 mi SW 17.3 mph 25.3 mph N/A   Clear
1:15 PM 50.0 °F - 14.0 °F 24% 29.88 in 10.0 mi SW 11.5 mph 24.2 mph N/A   Clear
1:35 PM 51.8 °F - 14.0 °F 22% 29.87 in 10.0 mi SW 15.0 mph 25.3 mph N/A   Clear
1:55 PM 50.0 °F - 15.8 °F 26% 29.88 in 10.0 mi SSW 13.8 mph 26.5 mph N/A   Clear
2:15 PM 50.0 °F - 15.8 °F 26% 29.88 in 10.0 mi SW 16.1 mph 23.0 mph N/A   Partly Cloudy
2:35 PM 48.2 °F - 17.6 °F 30% 29.87 in 10.0 mi SSW 11.5 mph 19.6 mph N/A   Mostly Cloudy
2:55 PM 48.2 °F - 17.6 °F 30% 29.87 in 10.0 mi SW 12.7 mph 21.9 mph N/A   Overcast
3:15 PM 48.2 °F - 17.6 °F 30% 29.87 in 10.0 mi WSW 13.8 mph 23.0 mph N/A   Overcast
3:35 PM 48.2 °F - 17.6 °F 30% 29.88 in 10.0 mi WSW 13.8 mph 23.0 mph N/A   Overcast
3:55 PM 48.2 °F - 19.4 °F 32% 29.86 in 10.0 mi SSW 12.7 mph 20.7 mph N/A   Overcast
4:15 PM 46.4 °F 39.2 °F 19.4 °F 34% 29.86 in 10.0 mi SW 18.4 mph 35.7 mph N/A   Overcast
4:35 PM 46.4 °F 40.7 °F 19.4 °F 34% 29.86 in 10.0 mi SSW 12.7 mph 24.2 mph N/A   Overcast
4:55 PM 44.6 °F 39.2 °F 21.2 °F 39% 29.86 in 10.0 mi SW 10.4 mph 20.7 mph N/A   Mostly Cloudy
5:15 PM 44.6 °F 37.8 °F 23.0 °F 43% 29.87 in 10.0 mi SW 15.0 mph 26.5 mph N/A   Mostly Cloudy
5:35 PM 42.8 °F 35.4 °F 24.8 °F 49% 29.88 in 10.0 mi WSW 15.0 mph 24.2 mph N/A   Overcast
5:55 PM 41.0 °F 33.5 °F 30.2 °F 65% 29.89 in 9.0 mi WSW 13.8 mph 25.3 mph N/A   Light Drizzle
6:15 PM 37.4 °F 29.8 °F 32.0 °F 81% 29.90 in 4.0 mi West 11.5 mph 19.6 mph N/A   Overcast
6:35 PM 33.8 °F 24.8 °F 32.0 °F 93% 29.91 in 1.2 mi West 12.7 mph 19.6 mph N/A Snow Light Snow
6:55 PM 33.8 °F 27.7 °F 32.0 °F 93% 29.90 in 5.0 mi WSW 6.9 mph 16.1 mph N/A Snow Light Snow
7:15 PM 35.6 °F 30.7 °F 33.8 °F 93% 29.90 in 10.0 mi West 5.8 mph - N/A   Mostly Cloudy
7:35 PM 35.6 °F 29.9 °F 33.8 °F 93% 29.91 in 10.0 mi West 6.9 mph - N/A   Mostly Cloudy
7:55 PM 35.6 °F 27.5 °F 32.0 °F 87% 29.93 in 10.0 mi West 11.5 mph 17.3 mph N/A   Overcast
8:15 PM 35.6 °F 28.0 °F 32.0 °F 87% 29.93 in 10.0 mi WNW 10.4 mph - N/A   Mostly Cloudy
8:35 PM 35.6 °F 29.2 °F 32.0 °F 87% 29.95 in 10.0 mi WNW 8.1 mph - N/A   Mostly Cloudy
9:15 PM 33.8 °F 28.6 °F 32.0 °F 93% 29.95 in 10.0 mi West 5.8 mph - N/A   Overcast
9:35 PM 35.6 °F 29.9 °F 32.0 °F 87% 29.95 in 10.0 mi West 6.9 mph - N/A   Overcast
9:55 PM 35.6 °F - 32.0 °F 87% 29.95 in 10.0 mi Calm Calm - N/A   Mostly Cloudy
10:15 PM 33.8 °F - 32.0 °F 93% 29.96 in 10.0 mi Calm Calm - N/A   Mostly Cloudy
10:35 PM 33.8 °F 29.6 °F 32.0 °F 93% 29.96 in 10.0 mi NNW 4.6 mph - N/A   Overcast
10:55 PM 33.8 °F - 32.0 °F 93% 29.95 in 10.0 mi Calm Calm - N/A   Overcast
11:15 PM 33.8 °F 28.6 °F 32.0 °F 93% 29.95 in 10.0 mi NW 5.8 mph - N/A   Mostly Cloudy
11:35 PM 33.8 °F - 32.0 °F 93% 29.96 in 10.0 mi Calm Calm - N/A   Clear
11:55 PM 33.8 °F 29.6 °F 32.0 °F 93% 29.96 in 10.0 mi NE 4.6 mph - N/A   Clear